Regional Weather Roundup
Issued by NWS Albany, NY

Home | Current Version | Previous Version | Text Only | Print | Product List | Glossary On
Versions: 1 2 3 4 5 6 7 8 9 10 11 12 13 14 15 16 17 18 19 20 21 22 23 24 25 26 27
000
ASUS41 KALY 250110
RWRALY

NEW YORK STATE HOURLY WEATHER ROUNDUP
NATIONAL WEATHER SERVICE ALBANY NY
900 PM EDT FRI MAR 24 2017

NOTE: "FAIR" INDICATES FEW OR NO CLOUDS BELOW 12,000 FEET WITH NO
SIGNIFICANT WEATHER AND/OR NO OBSTRUCTIONS TO VISIBILITY.

NYZ032-033-038>043-046>054-057>066-NYZ062>081-082-084-250200-
EAST


CITY           SKY/WX    TMP DP  RH WIND       PRES   REMARKS
ALBANY         CLOUDY    42  33  70 S7        30.06R
GLENS FALLS    CLOUDY    33  31  92 CALM      30.06R FOG
POUGHKEEPSIE   PTCLDY    37  31  78 CALM      30.12R
NEWBURGH       CLOUDY    41  34  75 CALM      30.13R
MONTGOMERY     CLOUDY    37  31  78 CALM      30.11R
WHITE PLAINS   CLOUDY    42  33  70 CALM      30.13R
ISLIP          MOCLDY    44  39  82 SW9       30.15R
NEW YORK CITY  MOCLDY    57  34  41 SW10      30.14R
CENTRAL PARK   CLEAR     55  34  45 SW10G17   30.16R
$$

NYZ005>009-017-018-044>046-055-056-250200-
CENTRAL


CITY           SKY/WX    TMP DP  RH WIND       PRES   REMARKS
FULTON         CLOUDY    43  37  79 N8        30.04R
SYRACUSE       CLOUDY    41  36  82 CALM      30.03R
ROME           CLOUDY    39  36  89 CALM      30.05R
ELMIRA         CLOUDY    51  39  63 NE9       30.03R
BINGHAMTON     CLOUDY    43  35  73 S12       30.03R
MONTICELLO     CLOUDY    34  34 100 CALM      30.12R
$$

NYZ026>034-041>043-087-250200-
NORTH


CITY           SKY/WX    TMP DP  RH WIND       PRES   REMARKS
WATERTOWN      LGT RAIN  37  37 100 NE5       30.05R VSB 1   WCI  33
FORT DRUM      NOT AVBL
MASSENA        LGT SNOW  33  32  96 CALM      30.08R VSB 1
SARANAC LAKE   CLOUDY    34  34 100 SW3       29.98R FOG
PLATTSBURGH    LGT RAIN  32  31  96 CALM      30.04R FOG
$$

NYZ001>004-010>016-019>021-085-250200-
WEST


CITY           SKY/WX    TMP DP  RH WIND       PRES   REMARKS
NIAGARA FALLS  CLOUDY    50  41  71 NE14G21   30.03R
BUFFALO        CLOUDY    50  44  80 E3        30.02R
DUNKIRK        CLOUDY    62  49  62 SW13      30.00R
JAMESTOWN      CLOUDY    61  46  59 W8        30.04R
WELLSVILLE     CLOUDY    62  47  57 W7        30.05R
ROCHESTER      CLOUDY    46  39  76 NE7       30.05R
PENN YAN       CLOUDY    47  39  74 SE3       30.01R
$$

             KEY
       WCI = WIND CHILL INDEX
       VSB = VISIBILITY
       HX  = HEAT INDEX
$$




USA.gov is the U.S. government's official web portal to all federal, state and local government web resources and services.